North Platte, NE

3:48 AM CDT on September 30, 2016 (GMT -0500)
North Platte Regional-Bird

Weather History for KLBF - May, 2012

Change the Weather History Date:

Wednesday, May 16, 2012

  Actual Average Record
Temperature  
Mean Temperature 62 °F 58 °F  
Max Temperature 85 °F 72 °F 93 °F (1996)
Min Temperature 38 °F 44 °F 30 °F (1923)
Degree Days  
Heating Degree Days 3 8  
Month to date heating degree days 107 159  
Since 1 July heating degree days 5673 6549  
Cooling Degree Days 0 1  
Month to date cooling degree days 16 6  
Year to date cooling degree days 29 9  
Growing Degree Days 10 (Base 50)    
Moisture  
Dew Point 40 °F    
Average Humidity 54    
Maximum Humidity 85    
Minimum Humidity 23    
Precipitation  
Precipitation 0.00 in 0.11 in 2.94 in (1902)
Month to date precipitation 0.10 1.55  
Year to date precipitation 5.95 5.71  
Snow  
Snow 0.00 in 0.00 in T in (1969)
Month to date snowfall 0.0 0.0  
Since 1 July snowfall 15.6 28.5  
Snow Depth 0.00 in    
Sea Level Pressure  
Sea Level Pressure 30.00 in    
Wind  
Wind Speed 11 mph (SE)    
Max Wind Speed 21 mph    
Max Gust Speed 30 mph    
Visibility 10 miles    
Events      
T = Trace of Precipitation, MM = Missing Value Source: NWS Daily Summary

Daily Weather History Graph

Daily Weather History Graph

Search for Another Location

Airport or City:

Trip Planner

Search our weather history database for the weather conditions in past years. The results will help you decide how hot, cold, wet, or windy it might be!

Date:

Astronomy

May. 16, 2012 Rise Set
Actual Time 6:23 AM CDT 8:55 PM CDT
Civil Twilight 5:51 AM CDT 9:27 PM CDT
Nautical Twilight 5:12 AM CDT 10:06 PM CDT
Astronomical Twilight 4:28 AM CDT 10:50 PM CDT
Moon 3:55 AM CDT (5/16) 5:11 PM CDT (5/16)
Length of Visible Light 15h 35m
Length of Day
14h 32m
Waning Crescent, 16% of the Moon is Illuminated
May 16
Waning Crescent
May 20
New
May 28
First Quarter
Jun 4
Full
Jun 11
Last Quarter

Hourly Weather History & Observations

Time (CDT) Temp. Windchill Dew Point Humidity Pressure Visibility Wind Dir Wind Speed Gust Speed Precip Events Conditions
12:53 AM 46.9 °F - 37.9 °F 71% 30.12 in 10.0 mi East 5.8 mph - N/A   Clear
1:53 AM 46.0 °F - 37.0 °F 71% 30.12 in 10.0 mi Calm Calm - N/A   Clear
2:53 AM 42.1 °F 40.2 °F 36.0 °F 79% 30.11 in 10.0 mi East 3.5 mph - N/A   Clear
3:53 AM 39.0 °F 36.8 °F 34.0 °F 82% 30.12 in 10.0 mi WSW 3.5 mph - N/A   Clear
4:53 AM 39.9 °F 36.7 °F 35.1 °F 83% 30.12 in 10.0 mi East 4.6 mph - N/A   Clear
5:53 AM 39.9 °F 34.5 °F 35.1 °F 83% 30.11 in 10.0 mi ENE 8.1 mph - N/A   Clear
6:53 AM 41.0 °F 39.0 °F 36.0 °F 82% 30.12 in 10.0 mi East 3.5 mph - N/A   Clear
7:53 AM 48.0 °F - 39.9 °F 74% 30.11 in 10.0 mi ESE 5.8 mph - N/A   Clear
8:53 AM 55.0 °F - 41.0 °F 59% 30.10 in 10.0 mi ESE 9.2 mph - N/A   Clear
9:53 AM 63.0 °F - 41.0 °F 45% 30.11 in 10.0 mi ESE 9.2 mph - N/A   Clear
10:53 AM 70.0 °F - 37.0 °F 30% 30.07 in 10.0 mi South 16.1 mph 20.7 mph N/A   Clear
11:53 AM 73.9 °F - 37.0 °F 26% 30.05 in 10.0 mi SSE 15.0 mph 23.0 mph N/A   Clear
12:53 PM 75.9 °F - 39.0 °F 26% 30.03 in 10.0 mi SSE 11.5 mph 23.0 mph N/A   Clear
1:53 PM 79.0 °F - 41.0 °F 26% 29.98 in 10.0 mi SSE 13.8 mph 21.9 mph N/A   Clear
2:53 PM 81.0 °F - 42.1 °F 25% 29.95 in 10.0 mi SE 11.5 mph 19.6 mph N/A   Clear
3:53 PM 82.9 °F - 42.1 °F 24% 29.92 in 10.0 mi South 13.8 mph - N/A   Clear
4:53 PM 84.0 °F - 43.0 °F 24% 29.88 in 10.0 mi South 15.0 mph 23.0 mph N/A   Clear
5:53 PM 84.9 °F - 44.1 °F 24% 29.85 in 10.0 mi SSE 18.4 mph 25.3 mph N/A   Clear
6:53 PM 82.9 °F - 44.1 °F 25% 29.84 in 10.0 mi SE 15.0 mph 21.9 mph N/A   Clear
7:53 PM 80.1 °F - 42.1 °F 26% 29.82 in 10.0 mi SE 15.0 mph 25.3 mph N/A   Clear
8:53 PM 75.0 °F - 44.1 °F 33% 29.82 in 10.0 mi SE 11.5 mph - N/A   Clear
9:53 PM 72.0 °F - 44.1 °F 37% 29.82 in 10.0 mi SE 12.7 mph - N/A   Clear
10:53 PM 72.0 °F - 43.0 °F 35% 29.81 in 10.0 mi SE 17.3 mph 29.9 mph N/A   Clear
11:53 PM 69.1 °F - 44.1 °F 40% 29.80 in 10.0 mi SE 11.5 mph - N/A   Clear